TimeEDT,TemperatureF,Dew PointF,Humidity,Sea Level PressureIn,VisibilityMPH,Wind Direction,Wind SpeedMPH,Gust SpeedMPH,PrecipitationIn,Events,Conditions,WindDirDegrees,DateUTC
12:54 AM,55.9,50.0,80,30.09,10.0,NE,10.4,-,N/A,,Overcast,50,2013-05-05 04:54:00
1:01 AM,55.4,50.0,82,30.09,10.0,NE,10.4,-,N/A,,Overcast,50,2013-05-05 05:01:00
1:14 AM,55.4,50.0,82,30.08,10.0,NE,11.5,-,N/A,,Overcast,50,2013-05-05 05:14:00
1:41 AM,55.4,50.0,82,30.07,10.0,NE,10.4,-,N/A,,Overcast,50,2013-05-05 05:41:00
1:54 AM,55.0,50.0,83,30.06,10.0,NE,10.4,-,N/A,,Overcast,50,2013-05-05 05:54:00
2:31 AM,55.4,51.8,88,30.05,10.0,NE,9.2,-,N/A,,Overcast,50,2013-05-05 06:31:00
2:54 AM,55.9,51.1,84,30.04,10.0,NE,10.4,-,N/A,,Overcast,40,2013-05-05 06:54:00
3:19 AM,55.4,51.8,88,30.04,8.0,NNE,9.2,-,N/A,,Overcast,30,2013-05-05 07:19:00
3:54 AM,55.9,51.1,84,30.04,6.0,NE,11.5,-,0.00,Rain,Light Rain,50,2013-05-05 07:54:00
4:54 AM,55.9,51.1,84,30.03,10.0,NE,10.4,-,0.01,,Overcast,40,2013-05-05 08:54:00
5:54 AM,55.9,52.0,87,30.04,10.0,ENE,11.5,-,N/A,,Overcast,60,2013-05-05 09:54:00
6:54 AM,57.0,52.0,83,30.05,9.0,NE,9.2,-,N/A,,Overcast,40,2013-05-05 10:54:00
7:54 AM,57.9,53.1,84,30.06,9.0,NE,11.5,-,N/A,,Overcast,40,2013-05-05 11:54:00
8:54 AM,60.1,54.0,80,30.06,10.0,ENE,11.5,-,N/A,,Overcast,60,2013-05-05 12:54:00
9:54 AM,62.1,55.0,78,30.06,10.0,ENE,8.1,-,N/A,,Overcast,60,2013-05-05 13:54:00
10:54 AM,64.0,57.0,78,30.06,10.0,NNE,9.2,-,N/A,,Overcast,30,2013-05-05 14:54:00
11:10 AM,64.4,57.2,77,30.06,10.0,NE,10.4,-,N/A,,Overcast,40,2013-05-05 15:10:00
11:54 AM,66.9,57.9,73,30.05,10.0,ENE,11.5,-,N/A,,Overcast,70,2013-05-05 15:54:00
12:54 PM,69.1,59.0,70,30.04,10.0,NE,12.7,-,N/A,,Overcast,50,2013-05-05 16:54:00
2:40 PM,69.8,60.8,73,30.03,10.0,East,15.0,23.0,0.00,,Overcast,90,2013-05-05 18:40:00
2:54 PM,70.0,60.1,71,30.03,10.0,East,12.7,21.9,0.00,,Overcast,80,2013-05-05 18:54:00
3:32 PM,69.8,60.8,73,30.02,10.0,East,12.7,20.7,N/A,,Overcast,80,2013-05-05 19:32:00
3:54 PM,70.0,59.0,68,30.03,10.0,East,15.0,23.0,N/A,,Mostly Cloudy,90,2013-05-05 19:54:00
4:05 PM,69.8,59.0,68,30.02,10.0,East,15.0,20.7,N/A,,Overcast,90,2013-05-05 20:05:00
4:13 PM,69.8,59.0,68,30.02,10.0,East,10.4,20.7,N/A,,Mostly Cloudy,90,2013-05-05 20:13:00
4:29 PM,68.0,60.8,78,30.01,10.0,East,17.3,24.2,0.00,Rain,Light Rain,80,2013-05-05 20:29:00
4:54 PM,69.1,60.1,73,30.02,10.0,East,8.1,-,0.00,,Mostly Cloudy,90,2013-05-05 20:54:00
5:54 PM,66.9,59.0,76,30.01,9.0,East,12.7,18.4,0.00,Rain,Light Rain,80,2013-05-05 21:54:00
6:47 PM,64.4,60.8,88,30.01,10.0,East,5.8,-,0.02,,Overcast,80,2013-05-05 22:47:00
6:54 PM,64.9,60.1,84,30.01,10.0,East,11.5,17.3,0.02,,Overcast,90,2013-05-05 22:54:00
7:45 PM,64.4,60.8,88,30.02,1.8,East,9.2,-,0.03,Rain,Rain,80,2013-05-05 23:45:00
8:02 PM,62.6,60.8,94,30.02,6.0,East,6.9,-,0.01,Rain,Light Rain,80,2013-05-06 00:02:00
8:54 PM,64.0,60.1,87,30.02,10.0,ENE,6.9,-,0.01,,Overcast,60,2013-05-06 00:54:00
9:54 PM,63.0,59.0,87,30.02,10.0,ENE,12.7,-,0.01,,Overcast,70,2013-05-06 01:54:00
10:54 PM,63.0,59.0,87,30.02,10.0,ENE,8.1,-,N/A,,Overcast,70,2013-05-06 02:54:00
11:35 PM,62.6,59.0,88,30.02,10.0,East,6.9,-,N/A,,Overcast,80,2013-05-06 03:35:00
11:54 PM,63.0,59.0,87,30.02,10.0,East,5.8,-,N/A,,Overcast,80,2013-05-06 03:54:00